Frankfort, KY

4:34 AM EST on February 10, 2016 (GMT -0500)
Capital City

Weather History for KFFT - January, 2014

Change the Weather History Date:

Sunday, January 19, 2014

  Actual Average Record
Temperature  
Mean Temperature 33 °F 32 °F  
Max Temperature 37 °F 42 °F 73 °F (1929)
Min Temperature 28 °F 23 °F -27 °F (1994)
Degree Days  
Heating Degree Days 32 33  
Month to date heating degree days 673 627  
Since 1 July heating degree days 2604 2459  
Cooling Degree Days 0 0  
Month to date cooling degree days 0 0  
Year to date cooling degree days 0 0  
Moisture  
Dew Point 25 °F    
Average Humidity 71    
Maximum Humidity 82    
Minimum Humidity 59    
Precipitation  
Precipitation 0.00 in 0.10 in 1.23 in (1998)
Month to date precipitation 2.10 2.15  
Year to date precipitation 2.10 2.15  
Sea Level Pressure  
Sea Level Pressure 29.90 in    
Wind  
Wind Speed 11 mph (WSW)    
Max Wind Speed 20 mph    
Max Gust Speed 24 mph    
Visibility 10 miles    
Events      
T = Trace of Precipitation, MM = Missing Value Source: NWS Daily Summary

Daily Weather History Graph

Daily Weather History Graph

Search for Another Location

Airport or City:

Trip Planner

Search our weather history database for the weather conditions in past years. The results will help you decide how hot, cold, wet, or windy it might be!

Date:

Astronomy

Jan. 19, 2014 Rise Set
Actual Time 7:53 AM EST 5:47 PM EST
Civil Twilight 7:24 AM EST 6:16 PM EST
Nautical Twilight 6:52 AM EST 6:48 PM EST
Astronomical Twilight 6:20 AM EST 7:20 PM EST
Moon 9:21 PM EST (1/19) 9:26 AM EST (1/19)
Length of Visible Light 10h 51m
Length of Day
9h 54m
Waning Gibbous, 89% of the Moon is Illuminated
Jan 19
Waning Gibbous
Jan 24
Last Quarter
Jan 30
New
Feb 6
First Quarter
Feb 14
Full

Hourly Weather History & Observations

Time (EST) Temp. Windchill Dew Point Humidity Pressure Visibility Wind Dir Wind Speed Gust Speed Precip Events Conditions
12:53 AM 33.1 °F 26.1 °F 21.9 °F 64% 29.79 in 10.0 mi SSW 8.1 mph - N/A   Mostly Cloudy
1:53 AM 35.1 °F 26.9 °F 25.0 °F 67% 29.79 in 10.0 mi SW 11.5 mph - N/A   Overcast
2:06 AM 35.1 °F 25.5 °F 27.0 °F 72% 29.77 in 10.0 mi WSW 15.0 mph - N/A   Overcast
2:43 AM 35.1 °F 27.9 °F 30.0 °F 82% 29.79 in 10.0 mi WSW 9.2 mph 17.3 mph N/A   Overcast
2:53 AM 35.1 °F 27.9 °F 30.0 °F 82% 29.82 in 10.0 mi WSW 9.2 mph - N/A   Overcast
3:03 AM 35.1 °F 29.3 °F 30.0 °F 82% 29.80 in 10.0 mi WSW 6.9 mph - N/A   Overcast
3:53 AM 35.1 °F 30.1 °F 30.9 °F 85% 29.84 in 10.0 mi WSW 5.8 mph - N/A   Overcast
4:00 AM 35.1 °F 29.3 °F 30.9 °F 85% 29.82 in 10.0 mi West 6.9 mph - N/A   Overcast
4:53 AM 35.1 °F 30.1 °F 30.9 °F 85% 29.85 in 10.0 mi West 5.8 mph - N/A   Overcast
5:53 AM 35.1 °F 26.9 °F 30.0 °F 82% 29.87 in 10.0 mi West 11.5 mph 20.7 mph N/A   Overcast
6:53 AM 34.0 °F 28.8 °F 28.9 °F 82% 29.91 in 10.0 mi WNW 5.8 mph 18.4 mph N/A   Overcast
7:10 AM 33.1 °F 23.4 °F 27.0 °F 78% 29.90 in 10.0 mi WNW 13.8 mph - N/A   Overcast
7:32 AM 30.9 °F 20.7 °F 25.0 °F 79% 29.93 in 10.0 mi WNW 13.8 mph 21.9 mph N/A   Overcast
7:53 AM 30.9 °F 22.2 °F 24.1 °F 76% 29.97 in 10.0 mi West 10.4 mph 17.3 mph N/A   Overcast
8:53 AM 28.9 °F 20.4 °F 23.0 °F 78% 30.00 in 10.0 mi West 9.2 mph - N/A   Overcast
9:53 AM 28.0 °F 18.6 °F 21.0 °F 75% 30.03 in 10.0 mi West 10.4 mph 17.3 mph N/A   Overcast
10:53 AM 28.0 °F 20.0 °F 21.0 °F 75% 30.04 in 10.0 mi WSW 8.1 mph - N/A   Mostly Cloudy
11:07 AM 28.9 °F 21.1 °F 21.0 °F 72% 30.02 in 10.0 mi West 8.1 mph - N/A   Scattered Clouds
11:53 AM 30.0 °F 21.7 °F 21.9 °F 72% 30.04 in 10.0 mi WSW 9.2 mph - N/A   Partly Cloudy
12:53 PM 32.0 °F 22.5 °F 23.0 °F 69% 30.01 in 10.0 mi WSW 12.7 mph - N/A   Clear
1:53 PM 34.0 °F 23.4 °F 24.1 °F 67% 29.98 in 10.0 mi SW 17.3 mph - N/A   Clear
2:53 PM 35.1 °F 25.9 °F 24.1 °F 64% 29.97 in 10.0 mi SW 13.8 mph - N/A   Clear
3:53 PM 36.0 °F 25.3 °F 23.0 °F 59% 29.95 in 10.0 mi SW 19.6 mph - N/A   Clear
4:53 PM 36.0 °F 26.7 °F 24.1 °F 62% 29.94 in 10.0 mi SW 15.0 mph - N/A   Clear
5:53 PM 35.1 °F 27.9 °F 24.1 °F 64% 29.93 in 10.0 mi SSW 9.2 mph - N/A   Clear
6:53 PM 33.1 °F 25.5 °F 24.1 °F 70% 29.92 in 10.0 mi SSW 9.2 mph - N/A   Clear
7:53 PM 34.0 °F 25.0 °F 25.0 °F 70% 29.90 in 10.0 mi SSW 12.7 mph - N/A   Clear
8:53 PM 35.1 °F 25.9 °F 25.0 °F 67% 29.87 in 10.0 mi SSW 13.8 mph - N/A   Clear
9:53 PM 36.0 °F 26.3 °F 25.0 °F 64% 29.85 in 10.0 mi SSW 16.1 mph - N/A   Clear
10:53 PM 36.0 °F 27.1 °F 25.0 °F 64% 29.85 in 10.0 mi SW 13.8 mph - N/A   Clear
11:53 PM 36.0 °F 27.1 °F 24.1 °F 62% 29.85 in 10.0 mi SW 13.8 mph - N/A   Clear